Time,TemperatureF,DewpointF,PressureIn,WindDirection,WindDirectionDegrees,WindSpeedMPH,WindSpeedGustMPH,Humidity,HourlyPrecipIn,Conditions,Clouds,dailyrainin,SoftwareType,DateUTC
2013-12-06 00:05:00,-4.5,-8.1,30.30,WSW,255,3.0,6.0,84,0.00,,,-99.99,Weather View 32 v70,2013-12-06 06:05:00,
2013-12-06 00:15:00,-4.5,-8.1,30.30,West,274,5.0,7.0,84,0.00,,,-99.99,Weather View 32 v70,2013-12-06 06:15:00,
2013-12-06 00:25:00,-4.5,-8.1,30.30,West,271,6.0,7.0,84,0.00,,,-99.99,Weather View 32 v70,2013-12-06 06:25:00,
2013-12-06 00:35:00,-4.5,-8.1,30.30,West,261,6.0,7.0,84,0.00,,,-99.99,Weather View 32 v70,2013-12-06 06:35:00,
2013-12-06 00:45:00,-4.7,-8.3,30.30,West,268,6.0,7.0,84,0.00,,,-99.99,Weather View 32 v70,2013-12-06 06:45:00,
2013-12-06 00:52:00,-4.7,-8.3,30.30,WNW,287,4.0,7.0,84,0.00,,,-99.99,Weather View 32 v70,2013-12-06 06:52:00,
2013-12-06 01:00:00,-4.9,-8.5,30.30,WSW,252,2.0,7.0,84,0.00,,,-99.99,Weather View 32 v70,2013-12-06 07:00:00,
2013-12-06 01:10:00,-5.1,-8.7,30.30,West,261,3.0,7.0,84,0.00,,,-99.99,Weather View 32 v70,2013-12-06 07:10:00,
2013-12-06 01:15:00,-5.3,-8.8,30.30,West,261,3.0,7.0,84,0.00,,,-99.99,Weather View 32 v70,2013-12-06 07:15:00,
2013-12-06 01:24:00,-5.6,-9.2,30.30,West,261,0.0,7.0,84,0.00,,,-99.99,Weather View 32 v70,2013-12-06 07:24:00,
2013-12-06 01:29:00,-5.8,-9.4,30.33,West,261,3.0,7.0,84,0.00,,,-99.99,Weather View 32 v70,2013-12-06 07:29:00,
2013-12-06 01:34:00,-6.2,-9.7,30.33,West,263,4.0,7.0,84,0.00,,,-99.99,Weather View 32 v70,2013-12-06 07:34:00,
2013-12-06 01:44:00,-6.3,-9.9,30.33,West,263,3.0,7.0,84,0.00,,,-99.99,Weather View 32 v70,2013-12-06 07:44:00,
2013-12-06 01:52:00,-6.5,-10.1,30.33,West,266,3.0,7.0,84,0.00,,,-99.99,Weather View 32 v70,2013-12-06 07:52:00,
2013-12-06 01:59:00,-6.7,-10.3,30.33,West,269,4.0,5.0,84,0.00,,,-99.99,Weather View 32 v70,2013-12-06 07:59:00,
2013-12-06 02:09:00,-6.9,-10.4,30.33,West,268,3.0,5.0,84,0.00,,,-99.99,Weather View 32 v70,2013-12-06 08:09:00,
2013-12-06 02:19:00,-7.2,-10.8,30.33,West,268,0.0,5.0,84,0.00,,,-99.99,Weather View 32 v70,2013-12-06 08:19:00,
2013-12-06 02:24:00,-7.4,-11.0,30.33,West,268,0.0,5.0,84,0.00,,,-99.99,Weather View 32 v70,2013-12-06 08:24:00,
2013-12-06 02:34:00,-8.0,-11.5,30.33,West,268,0.0,5.0,84,0.00,,,-99.99,Weather View 32 v70,2013-12-06 08:34:00,
2013-12-06 02:44:00,-8.3,-11.8,30.33,West,268,0.0,5.0,84,0.00,,,-99.99,Weather View 32 v70,2013-12-06 08:44:00,
2013-12-06 02:49:00,-8.5,-12.0,30.33,West,268,0.0,5.0,84,0.00,,,-99.99,Weather View 32 v70,2013-12-06 08:49:00,
2013-12-06 02:55:00,-8.3,-11.8,30.33,West,268,3.0,5.0,84,0.00,,,-99.99,Weather View 32 v70,2013-12-06 08:55:00,
2013-12-06 03:00:00,-8.0,-11.5,30.33,West,267,4.0,5.0,84,0.00,,,-99.99,Weather View 32 v70,2013-12-06 09:00:00,
2013-12-06 03:10:00,-8.0,-11.5,30.33,West,274,4.0,5.0,84,0.00,,,-99.99,Weather View 32 v70,2013-12-06 09:10:00,
2013-12-06 03:15:00,-8.0,-11.5,30.33,WNW,289,3.0,5.0,84,0.00,,,-99.99,Weather View 32 v70,2013-12-06 09:15:00,
2013-12-06 03:20:00,-8.1,-11.7,30.33,WNW,287,3.0,5.0,84,0.00,,,-99.99,Weather View 32 v70,2013-12-06 09:20:00,
2013-12-06 03:25:00,-8.1,-11.7,30.33,West,265,3.0,5.0,84,0.00,,,-99.99,Weather View 32 v70,2013-12-06 09:25:00,
2013-12-06 03:35:00,-7.8,-11.3,30.33,West,272,4.0,5.0,84,0.00,,,-99.99,Weather View 32 v70,2013-12-06 09:35:00,
2013-12-06 03:40:00,-7.4,-11.0,30.33,West,266,4.0,6.0,84,0.00,,,-99.99,Weather View 32 v70,2013-12-06 09:40:00,
2013-12-06 03:45:00,-7.1,-10.6,30.33,West,273,4.0,6.0,84,0.00,,,-99.99,Weather View 32 v70,2013-12-06 09:45:00,
2013-12-06 03:53:00,-6.9,-10.4,30.36,West,274,4.0,6.0,84,0.00,,,-99.99,Weather View 32 v70,2013-12-06 09:53:00,
2013-12-06 04:00:00,-7.1,-10.6,30.36,West,272,3.0,6.0,84,0.00,,,-99.99,Weather View 32 v70,2013-12-06 10:00:00,
2013-12-06 04:09:00,-7.6,-11.1,30.36,West,272,4.0,6.0,84,0.00,,,-99.99,Weather View 32 v70,2013-12-06 10:09:00,
2013-12-06 04:14:00,-8.0,-11.5,30.36,West,269,3.0,6.0,84,0.00,,,-99.99,Weather View 32 v70,2013-12-06 10:14:00,
2013-12-06 04:19:00,-8.1,-11.7,30.36,West,268,5.0,6.0,84,0.00,,,-99.99,Weather View 32 v70,2013-12-06 10:19:00,
2013-12-06 04:24:00,-8.1,-11.7,30.36,West,272,4.0,6.0,84,0.00,,,-99.99,Weather View 32 v70,2013-12-06 10:24:00,
2013-12-06 04:29:00,-8.3,-11.8,30.36,West,273,4.0,6.0,84,0.00,,,-99.99,Weather View 32 v70,2013-12-06 10:29:00,
2013-12-06 04:39:00,-8.7,-12.2,30.36,West,263,4.0,6.0,84,0.00,,,-99.99,Weather View 32 v70,2013-12-06 10:39:00,
2013-12-06 04:44:00,-8.7,-12.2,30.36,West,271,4.0,6.0,84,0.00,,,-99.99,Weather View 32 v70,2013-12-06 10:44:00,
2013-12-06 04:54:00,-8.5,-12.0,30.36,West,270,5.0,8.0,84,0.00,,,-99.99,Weather View 32 v70,2013-12-06 10:54:00,
2013-12-06 04:59:00,-8.0,-11.5,30.36,West,264,4.0,10.0,84,0.00,,,-99.99,Weather View 32 v70,2013-12-06 10:59:00,
2013-12-06 05:04:00,-7.8,-11.3,30.36,West,259,6.0,10.0,84,0.00,,,-99.99,Weather View 32 v70,2013-12-06 11:04:00,
2013-12-06 05:09:00,-8.0,-11.5,30.36,WNW,284,7.0,10.0,84,0.00,,,-99.99,Weather View 32 v70,2013-12-06 11:09:00,
2013-12-06 05:14:00,-8.0,-11.5,30.36,WNW,298,5.0,10.0,84,0.00,,,-99.99,Weather View 32 v70,2013-12-06 11:14:00,
2013-12-06 05:24:00,-8.1,-11.7,30.36,West,261,5.0,10.0,84,0.00,,,-99.99,Weather View 32 v70,2013-12-06 11:24:00,
2013-12-06 05:29:00,-8.1,-11.7,30.36,WSW,249,6.0,10.0,84,0.00,,,-99.99,Weather View 32 v70,2013-12-06 11:29:00,
2013-12-06 05:39:00,-8.3,-11.8,30.36,West,281,6.0,10.0,84,0.00,,,-99.99,Weather View 32 v70,2013-12-06 11:39:00,
2013-12-06 05:49:00,-8.9,-12.4,30.36,West,274,7.0,10.0,84,0.00,,,-99.99,Weather View 32 v70,2013-12-06 11:49:00,
2013-12-06 05:55:00,-8.9,-12.4,30.36,West,262,6.0,10.0,84,0.00,,,-99.99,Weather View 32 v70,2013-12-06 11:55:00,
2013-12-06 06:00:00,-9.0,-12.6,30.36,WNW,282,6.0,8.0,84,0.00,,,-99.99,Weather View 32 v70,2013-12-06 12:00:00,
2013-12-06 06:05:00,-9.0,-12.6,30.36,WNW,291,4.0,8.0,84,0.00,,,-99.99,Weather View 32 v70,2013-12-06 12:05:00,
2013-12-06 06:15:00,-9.4,-12.9,30.39,West,277,5.0,8.0,84,0.00,,,-99.99,Weather View 32 v70,2013-12-06 12:15:00,
2013-12-06 06:20:00,-9.6,-13.1,30.39,West,278,5.0,8.0,84,0.00,,,-99.99,Weather View 32 v70,2013-12-06 12:20:00,
2013-12-06 06:30:00,-9.9,-13.4,30.39,WSW,257,3.0,8.0,84,0.00,,,-99.99,Weather View 32 v70,2013-12-06 12:30:00,
2013-12-06 06:35:00,-10.1,-13.6,30.39,West,268,5.0,8.0,84,0.00,,,-99.99,Weather View 32 v70,2013-12-06 12:35:00,
2013-12-06 06:45:00,-10.3,-13.8,30.39,West,271,5.0,8.0,84,0.00,,,-99.99,Weather View 32 v70,2013-12-06 12:45:00,
2013-12-06 06:55:00,-10.5,-14.0,30.39,WNW,287,5.0,8.0,84,0.00,,,-99.99,Weather View 32 v70,2013-12-06 12:55:00,
2013-12-06 07:05:00,-10.7,-14.1,30.39,WNW,289,5.0,8.0,84,0.00,,,-99.99,Weather View 32 v70,2013-12-06 13:05:00,
2013-12-06 07:14:00,-10.8,-14.3,30.42,West,279,4.0,8.0,84,0.00,,,-99.99,Weather View 32 v70,2013-12-06 13:14:00,
2013-12-06 07:19:00,-11.2,-14.7,30.42,West,264,4.0,8.0,84,0.00,,,-99.99,Weather View 32 v70,2013-12-06 13:19:00,
2013-12-06 07:29:00,-11.4,-14.8,30.42,West,278,4.0,8.0,84,0.00,,,-99.99,Weather View 32 v70,2013-12-06 13:29:00,
2013-12-06 07:34:00,-11.4,-14.8,30.42,WSW,256,3.0,8.0,84,0.00,,,-99.99,Weather View 32 v70,2013-12-06 13:34:00,
2013-12-06 07:39:00,-11.4,-14.8,30.42,West,280,4.0,8.0,84,0.00,,,-99.99,Weather View 32 v70,2013-12-06 13:39:00,
2013-12-06 07:49:00,-11.6,-15.0,30.42,West,260,4.0,8.0,84,0.00,,,-99.99,Weather View 32 v70,2013-12-06 13:49:00,
2013-12-06 07:55:00,-11.6,-15.0,30.42,WSW,251,3.0,8.0,84,0.00,,,-99.99,Weather View 32 v70,2013-12-06 13:55:00,
2013-12-06 08:04:00,-11.2,-14.7,30.42,West,280,3.0,8.0,84,0.00,,,-99.99,Weather View 32 v70,2013-12-06 14:04:00,
2013-12-06 08:09:00,-11.0,-14.5,30.42,West,272,4.0,8.0,84,0.00,,,-99.99,Weather View 32 v70,2013-12-06 14:09:00,
2013-12-06 08:14:00,-11.0,-14.5,30.42,West,268,4.0,8.0,84,0.00,,,-99.99,Weather View 32 v70,2013-12-06 14:14:00,
2013-12-06 08:24:00,-11.2,-14.7,30.42,West,276,0.0,8.0,84,0.00,,,-99.99,Weather View 32 v70,2013-12-06 14:24:00,
2013-12-06 08:34:00,-11.7,-15.2,30.42,West,276,2.0,8.0,84,0.00,,,-99.99,Weather View 32 v70,2013-12-06 14:34:00,
2013-12-06 08:39:00,-12.1,-15.6,30.42,West,274,0.0,8.0,84,0.00,,,-99.99,Weather View 32 v70,2013-12-06 14:39:00,
2013-12-06 08:50:00,-12.1,-15.6,30.45,West,273,4.0,8.0,84,0.00,,,-99.99,Weather View 32 v70,2013-12-06 14:50:00,
2013-12-06 08:55:00,-11.6,-15.0,30.45,West,277,3.0,8.0,84,0.00,,,-99.99,Weather View 32 v70,2013-12-06 14:55:00,
2013-12-06 09:05:00,-11.0,-14.5,30.45,West,274,6.0,6.0,84,0.00,,,-99.99,Weather View 32 v70,2013-12-06 15:05:00,
2013-12-06 09:15:00,-10.7,-14.1,30.45,NW,325,8.0,8.0,84,0.00,,,-99.99,Weather View 32 v70,2013-12-06 15:15:00,
2013-12-06 09:20:00,-10.5,-14.0,30.45,West,270,4.0,8.0,84,0.00,,,-99.99,Weather View 32 v70,2013-12-06 15:20:00,
2013-12-06 09:30:00,-10.1,-13.6,30.45,West,266,4.0,8.0,84,0.00,,,-99.99,Weather View 32 v70,2013-12-06 15:30:00,
2013-12-06 09:40:00,-10.1,-13.6,30.45,West,270,4.0,8.0,84,0.00,,,-99.99,Weather View 32 v70,2013-12-06 15:40:00,
2013-12-06 09:50:00,-9.9,-13.4,30.48,WSW,251,3.0,8.0,84,0.00,,,-99.99,Weather View 32 v70,2013-12-06 15:50:00,
2013-12-06 09:57:00,-9.8,-13.3,30.48,West,259,3.0,8.0,84,0.00,,,-99.99,Weather View 32 v70,2013-12-06 15:57:00,
2013-12-06 10:05:00,-9.6,-13.1,30.48,West,259,4.0,8.0,84,0.00,,,-99.99,Weather View 32 v70,2013-12-06 16:05:00,
2013-12-06 10:10:00,-9.6,-13.1,30.48,West,273,4.0,8.0,84,0.00,,,-99.99,Weather View 32 v70,2013-12-06 16:10:00,
2013-12-06 10:15:00,-9.6,-13.1,30.48,WNW,284,4.0,8.0,84,0.00,,,-99.99,Weather View 32 v70,2013-12-06 16:15:00,
2013-12-06 10:24:00,-9.2,-12.7,30.48,WNW,298,4.0,8.0,84,0.00,,,-99.99,Weather View 32 v70,2013-12-06 16:24:00,
2013-12-06 10:34:00,-9.0,-12.6,30.48,WSW,244,4.0,8.0,84,0.00,,,-99.99,Weather View 32 v70,2013-12-06 16:34:00,
2013-12-06 10:44:00,-8.7,-12.2,30.48,WSW,255,3.0,8.0,84,0.00,,,-99.99,Weather View 32 v70,2013-12-06 16:44:00,
2013-12-06 10:54:00,-8.1,-11.7,30.48,West,260,5.0,8.0,84,0.00,,,-99.99,Weather View 32 v70,2013-12-06 16:54:00,
2013-12-06 10:59:00,-8.0,-11.5,30.48,West,265,3.0,8.0,84,0.00,,,-99.99,Weather View 32 v70,2013-12-06 16:59:00,
2013-12-06 11:09:00,-7.8,-11.3,30.48,WSW,248,5.0,8.0,84,0.00,,,-99.99,Weather View 32 v70,2013-12-06 17:09:00,
2013-12-06 11:14:00,-7.6,-11.1,30.48,NW,311,5.0,8.0,84,0.00,,,-99.99,Weather View 32 v70,2013-12-06 17:14:00,
2013-12-06 11:24:00,-7.2,-10.8,30.48,West,268,3.0,8.0,84,0.00,,,-99.99,Weather View 32 v70,2013-12-06 17:24:00,
2013-12-06 11:29:00,-7.2,-10.8,30.48,West,273,6.0,8.0,84,0.00,,,-99.99,Weather View 32 v70,2013-12-06 17:29:00,
2013-12-06 11:39:00,-7.1,-10.6,30.48,West,279,5.0,8.0,84,0.00,,,-99.99,Weather View 32 v70,2013-12-06 17:39:00,
2013-12-06 11:44:00,-7.1,-10.6,30.48,West,273,6.0,8.0,84,0.00,,,-99.99,Weather View 32 v70,2013-12-06 17:44:00,
2013-12-06 11:50:00,-7.1,-10.6,30.48,WSW,256,5.0,9.0,84,0.00,,,-99.99,Weather View 32 v70,2013-12-06 17:50:00,
2013-12-06 11:58:00,-6.7,-10.3,30.48,WSW,239,4.0,9.0,84,0.00,,,-99.99,Weather View 32 v70,2013-12-06 17:58:00,
2013-12-06 12:05:00,-6.3,-9.9,30.48,WSW,242,4.0,9.0,84,0.00,,,-99.99,Weather View 32 v70,2013-12-06 18:05:00,
2013-12-06 12:10:00,-6.3,-9.9,30.48,West,272,4.0,9.0,84,0.00,,,-99.99,Weather View 32 v70,2013-12-06 18:10:00,
2013-12-06 12:20:00,-6.0,-9.5,30.48,West,274,5.0,9.0,84,0.00,,,-99.99,Weather View 32 v70,2013-12-06 18:20:00,
2013-12-06 12:25:00,-6.0,-9.5,30.48,West,269,4.0,9.0,84,0.00,,,-99.99,Weather View 32 v70,2013-12-06 18:25:00,
2013-12-06 12:35:00,-5.8,-9.4,30.48,West,261,4.0,9.0,84,0.00,,,-99.99,Weather View 32 v70,2013-12-06 18:35:00,
2013-12-06 12:40:00,-5.6,-9.2,30.48,West,265,6.0,9.0,84,0.00,,,-99.99,Weather View 32 v70,2013-12-06 18:40:00,
2013-12-06 12:45:00,-5.6,-9.2,30.48,West,259,6.0,9.0,84,0.00,,,-99.99,Weather View 32 v70,2013-12-06 18:45:00,
2013-12-06 12:55:00,-5.6,-9.2,30.48,West,265,4.0,8.0,84,0.00,,,-99.99,Weather View 32 v70,2013-12-06 18:55:00,
2013-12-06 13:05:00,-5.1,-8.7,30.48,West,271,5.0,8.0,84,0.00,,,-99.99,Weather View 32 v70,2013-12-06 19:05:00,
2013-12-06 13:15:00,-5.1,-8.7,30.48,West,276,4.0,8.0,84,0.00,,,-99.99,Weather View 32 v70,2013-12-06 19:15:00,
2013-12-06 13:25:00,-5.1,-8.7,30.48,West,272,4.0,8.0,84,0.00,,,-99.99,Weather View 32 v70,2013-12-06 19:25:00,
2013-12-06 13:30:00,-5.1,-8.7,30.48,WNW,294,4.0,8.0,84,0.00,,,-99.99,Weather View 32 v70,2013-12-06 19:30:00,
2013-12-06 13:40:00,-4.9,-8.5,30.48,West,263,5.0,8.0,84,0.00,,,-99.99,Weather View 32 v70,2013-12-06 19:40:00,
2013-12-06 13:50:00,-4.7,-8.3,30.48,WSW,255,3.0,8.0,84,0.00,,,-99.99,Weather View 32 v70,2013-12-06 19:50:00,
2013-12-06 13:59:00,-4.5,-8.1,30.48,West,278,3.0,8.0,84,0.00,,,-99.99,Weather View 32 v70,2013-12-06 19:59:00,
2013-12-06 14:05:00,-4.4,-8.0,30.48,West,278,3.0,8.0,84,0.00,,,-99.99,Weather View 32 v70,2013-12-06 20:05:00,
2013-12-06 14:15:00,-4.4,-8.0,30.48,West,266,4.0,8.0,84,0.00,,,-99.99,Weather View 32 v70,2013-12-06 20:15:00,
2013-12-06 14:25:00,-4.4,-8.0,30.48,WNW,298,6.0,8.0,84,0.00,,,-99.99,Weather View 32 v70,2013-12-06 20:25:00,
2013-12-06 14:30:00,-4.5,-8.1,30.48,West,269,5.0,8.0,84,0.00,,,-99.99,Weather View 32 v70,2013-12-06 20:30:00,
2013-12-06 14:40:00,-4.5,-8.1,30.48,West,259,4.0,8.0,84,0.00,,,-99.99,Weather View 32 v70,2013-12-06 20:40:00,
2013-12-06 14:45:00,-4.5,-8.1,30.48,WSW,253,4.0,8.0,84,0.00,,,-99.99,Weather View 32 v70,2013-12-06 20:45:00,
2013-12-06 14:55:00,-4.5,-8.1,30.51,West,275,4.0,8.0,84,0.00,,,-99.99,Weather View 32 v70,2013-12-06 20:55:00,
2013-12-06 15:00:00,-4.5,-8.1,30.51,West,271,3.0,8.0,84,0.00,,,-99.99,Weather View 32 v70,2013-12-06 21:00:00,
2013-12-06 15:10:00,-4.7,-8.3,30.51,West,272,6.0,8.0,84,0.00,,,-99.99,Weather View 32 v70,2013-12-06 21:10:00,
2013-12-06 15:20:00,-5.1,-8.7,30.51,West,259,4.0,8.0,84,0.00,,,-99.99,Weather View 32 v70,2013-12-06 21:20:00,
2013-12-06 15:30:00,-5.3,-8.8,30.51,SW,235,4.0,7.0,84,0.00,,,-99.99,Weather View 32 v70,2013-12-06 21:30:00,
2013-12-06 15:40:00,-5.4,-9.0,30.51,WSW,251,3.0,7.0,84,0.00,,,-99.99,Weather View 32 v70,2013-12-06 21:40:00,
2013-12-06 15:45:00,-5.4,-9.0,30.51,West,261,4.0,7.0,84,0.00,,,-99.99,Weather View 32 v70,2013-12-06 21:45:00,
2013-12-06 15:55:00,-5.6,-9.2,30.51,West,263,3.0,7.0,84,0.00,,,-99.99,Weather View 32 v70,2013-12-06 21:55:00,
2013-12-06 16:00:00,-5.8,-9.4,30.51,West,259,5.0,7.0,84,0.00,,,-99.99,Weather View 32 v70,2013-12-06 22:00:00,
2013-12-06 16:09:00,-6.0,-9.5,30.51,WSW,258,4.0,6.0,84,0.00,,,-99.99,Weather View 32 v70,2013-12-06 22:09:00,
2013-12-06 16:14:00,-6.0,-9.5,30.51,West,279,4.0,6.0,84,0.00,,,-99.99,Weather View 32 v70,2013-12-06 22:14:00,
2013-12-06 16:24:00,-6.3,-9.9,30.51,West,260,5.0,6.0,84,0.00,,,-99.99,Weather View 32 v70,2013-12-06 22:24:00,
2013-12-06 16:29:00,-6.3,-9.9,30.51,WSW,258,3.0,6.0,84,0.00,,,-99.99,Weather View 32 v70,2013-12-06 22:29:00,
2013-12-06 16:39:00,-6.5,-10.1,30.51,West,277,5.0,6.0,84,0.00,,,-99.99,Weather View 32 v70,2013-12-06 22:39:00,
2013-12-06 16:44:00,-6.7,-10.3,30.51,West,269,4.0,6.0,84,0.00,,,-99.99,Weather View 32 v70,2013-12-06 22:44:00,
2013-12-06 16:54:00,-7.1,-10.6,30.51,West,263,3.0,6.0,84,0.00,,,-99.99,Weather View 32 v70,2013-12-06 22:54:00,
2013-12-06 17:01:00,-7.1,-10.6,30.51,West,271,4.0,6.0,84,0.00,,,-99.99,Weather View 32 v70,2013-12-06 23:01:00,
2013-12-06 17:09:00,-7.4,-11.0,30.51,West,264,0.0,6.0,84,0.00,,,-99.99,Weather View 32 v70,2013-12-06 23:09:00,
2013-12-06 17:14:00,-7.4,-11.0,30.51,West,264,0.0,6.0,84,0.00,,,-99.99,Weather View 32 v70,2013-12-06 23:14:00,
2013-12-06 17:24:00,-7.8,-11.3,30.51,West,264,0.0,5.0,84,0.00,,,-99.99,Weather View 32 v70,2013-12-06 23:24:00,
2013-12-06 17:29:00,-8.0,-11.5,30.51,West,265,0.0,5.0,84,0.00,,,-99.99,Weather View 32 v70,2013-12-06 23:29:00,
2013-12-06 17:39:00,-8.3,-11.8,30.54,West,264,0.0,5.0,84,0.00,,,-99.99,Weather View 32 v70,2013-12-06 23:39:00,
2013-12-06 17:49:00,-8.5,-12.0,30.54,West,264,0.0,5.0,84,0.00,,,-99.99,Weather View 32 v70,2013-12-06 23:49:00,
2013-12-06 17:59:00,-8.7,-12.2,30.54,West,264,2.0,5.0,84,0.00,,,-99.99,Weather View 32 v70,2013-12-06 23:59:00,
2013-12-06 18:09:00,-8.9,-12.4,30.54,West,264,0.0,4.0,84,0.00,,,-99.99,Weather View 32 v70,2013-12-07 00:09:00,
2013-12-06 18:19:00,-9.0,-12.6,30.51,West,264,3.0,4.0,84,0.00,,,-99.99,Weather View 32 v70,2013-12-07 00:19:00,
2013-12-06 18:29:00,-9.4,-12.9,30.51,West,264,0.0,4.0,84,0.00,,,-99.99,Weather View 32 v70,2013-12-07 00:29:00,
2013-12-06 18:39:00,-9.4,-12.9,30.54,WSW,258,3.0,5.0,84,0.00,,,-99.99,Weather View 32 v70,2013-12-07 00:39:00,
2013-12-06 18:49:00,-9.2,-12.7,30.54,West,276,4.0,6.0,84,0.00,,,-99.99,Weather View 32 v70,2013-12-07 00:49:00,
2013-12-06 18:54:00,-9.0,-12.6,30.54,West,261,4.0,6.0,84,0.00,,,-99.99,Weather View 32 v70,2013-12-07 00:54:00,
2013-12-06 19:01:00,-8.9,-12.4,30.54,West,271,5.0,6.0,84,0.00,,,-99.99,Weather View 32 v70,2013-12-07 01:01:00,
2013-12-06 19:09:00,-8.9,-12.4,30.54,West,272,3.0,6.0,84,0.00,,,-99.99,Weather View 32 v70,2013-12-07 01:09:00,
2013-12-06 19:19:00,-9.0,-12.6,30.54,West,267,3.0,6.0,84,0.00,,,-99.99,Weather View 32 v70,2013-12-07 01:19:00,
2013-12-06 19:29:00,-9.4,-12.9,30.54,West,270,4.0,6.0,84,0.00,,,-99.99,Weather View 32 v70,2013-12-07 01:29:00,
2013-12-06 19:34:00,-9.6,-13.1,30.54,West,273,4.0,6.0,84,0.00,,,-99.99,Weather View 32 v70,2013-12-07 01:34:00,
2013-12-06 19:44:00,-9.8,-13.3,30.54,West,264,4.0,6.0,84,0.00,,,-99.99,Weather View 32 v70,2013-12-07 01:44:00,
2013-12-06 19:50:00,-10.1,-13.6,30.54,West,266,3.0,6.0,84,0.00,,,-99.99,Weather View 32 v70,2013-12-07 01:50:00,
2013-12-06 20:00:00,-10.5,-14.0,30.56,West,276,3.0,6.0,84,0.00,,,-99.99,Weather View 32 v70,2013-12-07 02:00:00,
2013-12-06 20:10:00,-10.3,-13.8,30.56,West,262,3.0,6.0,84,0.00,,,-99.99,Weather View 32 v70,2013-12-07 02:10:00,
2013-12-06 20:20:00,-10.3,-13.8,30.56,West,264,0.0,6.0,84,0.00,,,-99.99,Weather View 32 v70,2013-12-07 02:20:00,
2013-12-06 20:25:00,-10.5,-14.0,30.56,West,263,4.0,6.0,84,0.00,,,-99.99,Weather View 32 v70,2013-12-07 02:25:00,
2013-12-06 20:35:00,-10.7,-14.1,30.56,West,264,0.0,6.0,84,0.00,,,-99.99,Weather View 32 v70,2013-12-07 02:35:00,
2013-12-06 20:45:00,-11.0,-14.5,30.56,West,263,0.0,5.0,84,0.00,,,-99.99,Weather View 32 v70,2013-12-07 02:45:00,
2013-12-06 20:55:00,-11.2,-14.7,30.56,SSW,204,0.0,5.0,84,0.00,,,-99.99,Weather View 32 v70,2013-12-07 02:55:00,
2013-12-06 21:00:00,-11.2,-14.7,30.56,South,188,0.0,5.0,84,0.00,,,-99.99,Weather View 32 v70,2013-12-07 03:00:00,
2013-12-06 21:10:00,-11.7,-15.2,30.56,South,188,0.0,4.0,84,0.00,,,-99.99,Weather View 32 v70,2013-12-07 03:10:00,
2013-12-06 21:15:00,-12.1,-15.6,30.56,South,188,0.0,4.0,84,0.00,,,-99.99,Weather View 32 v70,2013-12-07 03:15:00,
2013-12-06 21:20:00,-12.3,-15.7,30.56,South,188,0.0,4.0,84,0.00,,,-99.99,Weather View 32 v70,2013-12-07 03:20:00,
2013-12-06 21:29:00,-12.8,-16.3,30.56,South,189,0.0,4.0,84,0.00,,,-99.99,Weather View 32 v70,2013-12-07 03:29:00,
2013-12-06 21:34:00,-13.0,-16.4,30.56,South,189,0.0,4.0,84,0.00,,,-99.99,Weather View 32 v70,2013-12-07 03:34:00,
2013-12-06 21:44:00,-13.4,-16.8,30.56,South,189,0.0,4.0,84,0.00,,,-99.99,Weather View 32 v70,2013-12-07 03:44:00,
2013-12-06 21:54:00,-13.7,-17.1,30.56,South,188,0.0,4.0,84,0.00,,,-99.99,Weather View 32 v70,2013-12-07 03:54:00,
2013-12-06 22:03:00,-13.9,-17.3,30.56,South,188,0.0,3.0,84,0.00,,,-99.99,Weather View 32 v70,2013-12-07 04:03:00,
2013-12-06 22:09:00,-13.4,-16.8,30.56,SSW,201,3.0,4.0,84,0.00,,,-99.99,Weather View 32 v70,2013-12-07 04:09:00,
2013-12-06 22:14:00,-13.2,-16.6,30.56,SSW,202,4.0,4.0,84,0.00,,,-99.99,Weather View 32 v70,2013-12-07 04:14:00,
2013-12-06 22:19:00,-13.2,-16.6,30.56,SSW,202,3.0,4.0,84,0.00,,,-99.99,Weather View 32 v70,2013-12-07 04:19:00,
2013-12-06 22:29:00,-13.2,-16.6,30.56,SSW,202,3.0,4.0,84,0.00,,,-99.99,Weather View 32 v70,2013-12-07 04:29:00,
2013-12-06 22:39:00,-12.8,-16.3,30.56,West,279,4.0,6.0,84,0.00,,,-99.99,Weather View 32 v70,2013-12-07 04:39:00,
2013-12-06 22:50:00,-12.8,-16.3,30.56,West,274,3.0,6.0,84,0.00,,,-99.99,Weather View 32 v70,2013-12-07 04:50:00,
2013-12-06 23:00:00,-13.0,-16.4,30.56,West,276,0.0,6.0,84,0.00,,,-99.99,Weather View 32 v70,2013-12-07 05:00:00,
2013-12-06 23:05:00,-13.0,-16.4,30.56,West,276,0.0,6.0,84,0.00,,,-99.99,Weather View 32 v70,2013-12-07 05:05:00,
2013-12-06 23:10:00,-13.2,-16.6,30.56,SE,144,4.0,6.0,84,0.00,,,-99.99,Weather View 32 v70,2013-12-07 05:10:00,
2013-12-06 23:15:00,-13.2,-16.6,30.56,South,174,4.0,6.0,84,0.00,,,-99.99,Weather View 32 v70,2013-12-07 05:15:00,
2013-12-06 23:20:00,-13.4,-16.8,30.56,SSW,198,3.0,6.0,84,0.00,,,-99.99,Weather View 32 v70,2013-12-07 05:20:00,
2013-12-06 23:30:00,-13.4,-16.8,30.59,West,279,3.0,6.0,84,0.00,,,-99.99,Weather View 32 v70,2013-12-07 05:30:00,
2013-12-06 23:35:00,-13.5,-17.0,30.59,West,281,5.0,6.0,84,0.00,,,-99.99,Weather View 32 v70,2013-12-07 05:35:00,
2013-12-06 23:40:00,-13.5,-17.0,30.59,West,279,3.0,6.0,84,0.00,,,-99.99,Weather View 32 v70,2013-12-07 05:40:00,
2013-12-06 23:50:00,-13.9,-17.3,30.59,West,280,3.0,6.0,84,0.00,,,-99.99,Weather View 32 v70,2013-12-07 05:50:00,
2013-12-06 23:55:00,-14.1,-17.5,30.59,West,277,0.0,6.0,84,0.00,,,-99.99,Weather View 32 v70,2013-12-07 05:55:00,